User: anonymous   Login
Location: Unspecified
(0.0000°N, 0.0000°E)
Time: 15:58:24
(UTC+00:00)
Language:

KAIDUN 1 - Orbit

View from above orbital plane
View from above orbital plane
View from above satellite
View from above satellite

Ground track
Ground track

The orbit data is extracted from the following two-line orbital elements,

1 41915U 17002C   21334.09339525  .00001142  00000-0  69053-4 0  9994
2 41915  97.3254  24.0050 0008285 249.4733 197.8051 15.12545755269747
Epoch (UTC): 30 November 2021 02:14:29
Eccentricity: 0.0008285
inclination: 97.3254°
perigee height: 523 km
apogee height: 534 km
right ascension of ascending node: 24.0050°
argument of perigee: 249.4733°
revolutions per day: 15.12545755
mean anomaly at epoch: 197.8051°
orbit number at epoch: 26974

The dashed part of the orbit path shows where the satellite is in the earth's shadow,  

DLR